Wind_Speed
4 6 3 4 2 3 2 2 3 2 2 6 6 8 9 8 12 11 9 10 11 11 12 19 24 26 25 23 17 10 7 6 9 15 20 20 19 15 11 5 3 3 6 8
7 3 0 8 6 6 6 6 1 2 7 8 9 11 10 10 5 9 13 11 10 9 11 19 25 29 25 19 13 8 9 11 14 15 13 10 9 6 3 2 2 3 3 4
5 2 5 7 7 7 4 3 3 4 5 7 7 7 8 6 9 10 8 7 7 10 10 8 17 26 24 22 20 18 17 14 10 9 9 9 9 8 5 5 4 3 5 9
6 6 5 6 5 3 3 1 2 3 4 4 3 2 3 3 6 5 6 6 7 7 8 7 14 22 23 20 17 14 11 9 7 5 4 5 7 9 6 7 4 4 5 8
2 3 5 6 1 2 3 2 2 1 3 4 3 5 3 5 3 3 4 6 8 10 9 8 13 20 18 16 12 8 6 4 2 3 4 5 4 3 7 6 4 3 8 17
3 2 3 2 1 1 2 4 6 4 3 2 1 5 4 6 7 5 4 5 6 6 6 9 16 16 13 10 8 9 8 6 4 4 3 2 3 5 2 2 8 13 16 19
5 4 5 3 2 3 5 5 2 3 3 4 5 3 5 8 11 7 9 8 6 2 3 4 8 9 13 10 9 8 7 9 7 5 5 4 2 2 7 10 14 18 18 14
4 3 4 5 2 2 3 4 4 5 3 3 5 2 4 3 10 10 5 7 6 6 6 6 11 19 20 16 13 10 9 6 4 4 5 5 6 7 10 13 15 17 16 13
4 1 3 1 2 3 1 4 3 6 3 3 2 2 5 4 7 7 9 8 8 7 7 8 15 18 17 13 10 8 6 4 2 1 2 5 8 11 13 14 17 17 14 10
5 4 1 3 3 4 5 4 3 4 2 1 2 3 4 7 11 6 6 10 7 7 7 7 14 15 12 9 5 5 5 6 6 4 8 12 12 13 16 19 18 17 12 10
3 3 4 2 3 1 4 2 6 5 3 4 1 5 5 9 8 8 7 9 9 8 7 5 11 11 8 6 5 4 4 8 5 6 10 12 14 17 19 18 16 11 11 13
2 5 3 1 5 3 1 3 4 4 2 1 3 5 3 7 8 11 10 9 7 7 6 7 8 6 4 3 3 4 6 6 5 5 6 9 13 17 17 14 12 14 19 17
2 2 3 6 6 5 3 3 5 5 3 4 4 5 2 5 6 3 9 8 7 7 5 3 4 4 3 2 2 6 6 6 6 7 10 14 16 16 14 15 18 21 22 18
4 3 5 6 4 3 3 2 4 5 3 3 6 3 5 4 7 7 7 7 7 6 5 4 3 2 1 3 5 5 5 6 7 10 13 13 12 14 15 15 17 21 20 19
4 3 2 3 4 2 1 3 5 6 5 5 5 7 5 10 9 8 7 6 6 5 3 2 1 2 7 4 5 3 5 6 8 9 10 9 10 13 15 19 20 21 18 17
4 1 1 1 4 5 3 5 7 6 4 7 5 5 3 5 5 6 8 7 5 4 3 3 2 5 3 6 3 2 6 8 8 9 8 8 11 15 17 18 17 16 15 11
3 4 3 3 4 4 6 8 8 5 4 6 6 8 7 5 8 8 7 7 6 5 5 3 4 2 6 5 1 5 10 11 11 8 8 10 13 16 18 17 16 13 14 5
5 4 2 2 3 2 6 3 4 6 4 3 2 7 10 6 4 5 6 6 7 6 4 3 4 7 8 3 5 9 11 12 10 6 9 11 14 18 19 17 15 11 2 8
3 5 3 4 3 5 4 5 7 7 7 7 6 5 4 4 3 3 6 5 6 6 6 8 6 7 4 4 10 10 9 5 4 7 10 15 17 17 18 16 13 10 9 10
5 6 4 2 4 6 6 3 5 4 5 8 8 8 8 7 3 5 8 6 9 7 10 8 5 3 4 9 7 3 3 5 7 9 14 16 13 16 16 14 11 10 9 6
2 3 5 2 4 8 6 4 3 5 7 7 10 10 9 8 5 3 6 5 7 10 7 5 3 3 6 4 3 5 5 8 10 14 14 13 12 15 14 11 9 7 5 5
7 6 4 3 1 8 7 3 8 6 2 9 9 9 13 7 6 5 7 7 10 9 7 3 3 5 5 8 7 7 9 13 16 15 13 11 13 9 7 5 1 5 5 2
3 7 5 9 6 4 6 4 5 6 6 7 8 5 8 7 6 6 5 7 8 9 4 2 3 4 7 10 7 9 13 15 18 17 13 11 8 7 5 5 5 5 3 2
4 4 2 2 5 8 8 5 3 6 5 5 6 7 7 7 6 6 6 7 8 5 3 1 4 7 10 13 10 12 17 17 19 17 12 9 9 8 7 6 5 4 2 4
4 5 5 5 7 5 7 7 5 5 6 7 9 7 11 9 7 6 6 7 6 4 0 5 7 9 13 12 13 17 19 14 13 10 12 12 9 6 4 3 5 5 5 6
5 7 4 7 8 5 5 5 7 9 10 10 9 6 5 9 7 9 8 8 6 1 4 7 9 14 14 14 19 18 16 11 12 14 17 15 10 10 7 7 7 6 7 7
Wind_Direction
7 64 71 55 105 171 105 101 167 272 20 80 51 32 12 3 95 104 98 96 87 79 78 78 98 115 120 122 127 128 163 171 114 110 95 94 85 90 81 84 89 38 5 347
25 83 222 90 57 76 77 117 105 99 35 84 65 33 32 38 63 98 109 96 92 86 82 82 96 101 98 108 111 108 114 128 128 106 95 104 112 120 133 94 352 324 313 331
124 308 61 82 43 74 35 85 13 115 55 36 93 38 14 21 60 82 75 95 91 110 100 95 108 115 122 124 124 118 117 121 121 110 119 138 157 169 193 194 160 88 39 18
72 335 89 71 81 92 63 326 54 45 89 178 82 144 23 8 54 79 103 115 128 129 136 140 131 131 132 133 133 130 124 120 133 149 195 222 236 218 211 180 128 87 16 6
220 81 73 64 82 110 183 141 128 108 83 88 34 91 231 121 129 157 153 163 171 164 153 154 151 141 143 143 138 140 122 136 179 237 267 262 226 193 149 130 104 28 340 327
101 162 80 186 2 121 115 94 42 50 83 58 278 130 228 195 189 173 196 207 182 162 149 148 152 141 121 105 95 100 106 101 185 214 212 222 154 138 137 301 299 300 309 316
14 358 331 47 87 11 71 73 11 10 11 206 328 72 224 218 167 176 173 196 201 127 103 87 99 107 89 83 105 103 94 89 102 103 91 79 64 328 311 300 305 299 299 288
117 358 4 337 98 193 51 135 148 190 188 239 359 353 277 176 131 164 157 104 121 117 122 99 107 100 94 98 101 99 87 83 61 20 1 347 328 311 299 296 291 290 279 266
129 348 323 313 358 134 157 50 151 106 13 69 265 12 15 97 118 155 158 134 121 110 104 97 93 95 96 91 87 68 51 26 320 265 243 286 294 297 284 277 276 272 257 244
183 101 357 307 57 20 113 141 52 9 118 187 271 221 207 208 188 184 143 123 116 92 84 94 99 109 107 90 55 26 20 13 9 319 308 306 293 295 290 283 275 270 253 261
106 96 275 23 19 221 2 39 62 107 111 155 175 259 217 196 189 158 139 129 135 130 131 115 109 123 115 85 85 53 36 26 357 315 316 326 337 335 325 304 275 268 279 275
36 121 96 206 292 293 163 124 113 106 209 36 142 275 328 178 156 148 154 151 140 128 128 124 118 101 132 147 98 59 53 29 18 15 20 354 348 344 333 306 299 289 287 268
145 35 69 354 351 351 104 62 92 105 90 197 132 263 71 71 118 137 134 127 128 129 120 121 149 167 162 172 68 60 64 64 54 16 9 355 354 355 352 336 324 309 295 262
106 98 149 183 201 175 152 117 106 113 123 194 225 216 199 179 158 139 140 138 148 150 151 168 171 189 320 8 57 82 68 41 18 356 353 354 358 350 346 341 321 304 284 286
87 114 88 53 23 52 147 177 173 191 189 173 252 215 223 195 179 165 151 152 154 155 149 156 191 310 7 53 112 76 27 1 339 334 339 338 338 340 338 332 318 305 293 300
15 159 89 103 5 8 279 250 242 234 221 255 249 245 220 123 116 149 172 164 170 185 204 236 324 358 31 124 107 1 334 324 307 310 311 314 325 335 336 326 311 305 290 298
78 117 90 254 346 338 332 218 193 198 198 176 187 220 164 174 176 177 180 181 187 200 211 263 313 254 161 163 211 318 323 311 302 280 301 315 322 326 330 323 314 310 303 298
115 91 72 180 21 7 244 312 231 197 214 195 126 175 178 166 158 166 185 184 206 212 238 251 198 171 181 199 318 321 318 306 297 290 301 307 318 322 322 321 322 323 275 312
73 118 99 139 198 300 282 206 164 171 252 194 175 159 169 113 72 281 216 204 201 211 214 184 180 185 191 309 322 310 301 288 274 297 308 324 318 316 317 315 317 324 302 302
57 71 108 126 150 218 240 247 131 98 298 185 162 174 160 132 174 236 195 197 217 198 173 166 164 168 327 327 312 284 278 293 305 315 323 317 310 314 315 311 304 305 306 188
45 15 160 144 229 286 233 197 125 115 235 164 176 180 159 192 195 183 152 199 177 159 156 139 115 340 331 340 298 287 284 301 311 312 312 301 309 313 312 309 291 281 187 171
171 156 198 102 57 276 165 85 168 207 206 181 183 184 191 182 150 165 170 141 146 143 145 105 22 3 1 338 304 295 294 315 310 294 290 296 312 315 328 347 58 159 176 200
240 190 183 186 214 246 225 215 236 173 158 196 179 162 162 153 174 169 149 141 139 133 126 75 5 333 330 336 306 296 310 316 310 282 277 296 306 315 314 305 220 192 192 266
245 160 213 93 255 233 244 263 228 194 204 154 144 144 149 159 157 140 151 141 145 142 118 354 318 325 330 338 314 309 313 310 314 280 276 298 310 307 305 272 213 200 253 274
203 141 206 257 281 284 262 236 209 182 155 140 146 156 167 152 156 144 146 151 154 154 249 326 327 328 328 329 326 323 320 305 318 284 283 290 295 296 297 219 222 267 284 277
191 198 168 236 225 199 231 209 175 162 168 157 152 123 113 135 141 143 151 161 161 186 334 326 324 329 329 323 323 324 328 292 305 298 304 283 274 274 253 236 261 282 286 283
Height
775 790 799 793 788 788 790 804 809 802 791 804 818 824 822 816 814 821 822 821 822 823 823 821 819 820 823 828 835 838 841 844 846 845 844 846 848 850 850 851 849 849 848 848
790 797 785 786 787 791 798 806 806 797 797 808 820 831 827 823 824 823 823 826 828 828 828 826 825 826 829 832 836 837 839 842 845 845 846 849 850 851 850 851 850 850 849 847
798 789 780 788 798 801 808 809 806 804 806 812 817 836 836 830 828 827 831 832 832 831 833 832 831 830 833 836 838 840 842 843 845 845 847 849 850 850 850 850 850 850 849 848
795 789 790 797 803 803 810 799 800 803 819 838 818 862 837 837 839 838 838 837 837 836 834 835 835 835 836 838 840 843 844 845 846 846 847 847 847 846 848 849 849 849 848 846
801 798 799 803 801 798 807 800 805 808 824 829 827 852 845 842 846 841 840 838 837 836 834 837 837 837 839 841 844 845 845 846 848 848 847 847 846 847 848 849 849 848 846 842
796 790 794 797 794 794 795 807 819 827 833 855 827 843 852 846 838 840 838 838 837 837 838 838 838 839 841 843 846 846 846 846 846 847 847 847 848 849 850 849 847 845 842 840
806 804 798 793 799 798 806 822 856 856 862 858 832 839 841 830 829 835 837 838 837 839 841 842 842 842 839 843 846 847 847 846 846 846 847 848 848 848 848 847 845 843 840 838
826 831 807 799 802 807 812 820 854 840 864 857 834 845 837 825 827 831 833 839 841 844 842 841 842 842 842 846 847 848 848 848 848 847 847 847 847 846 844 842 840 838 836 836
822 821 801 799 798 803 810 831 821 852 864 868 854 836 830 829 832 833 835 836 839 842 841 842 842 843 845 847 849 849 849 849 848 847 847 845 843 841 840 838 836 834 833 833
808 824 806 802 799 802 808 813 838 855 859 854 852 844 847 836 834 830 835 838 841 842 845 844 843 845 848 848 848 848 847 847 846 846 846 844 843 841 840 837 834 832 832 832
803 818 823 810 817 819 820 824 834 844 862 868 876 853 828 827 828 834 839 839 842 845 847 847 847 848 848 848 848 848 847 846 845 845 844 843 842 840 837 834 832 832 831 830
808 827 844 822 813 808 809 818 831 862 850 877 878 855 822 822 828 830 834 838 842 844 846 847 847 846 848 849 848 847 846 845 844 843 842 841 840 837 834 832 831 830 827 825
809 828 853 839 827 816 816 819 835 846 861 856 883 856 826 827 831 832 836 841 844 845 847 847 847 848 848 847 846 845 845 844 843 842 841 839 836 833 831 830 829 827 823 821
809 825 831 844 829 825 824 822 830 838 867 855 857 834 830 835 836 839 841 843 846 847 847 847 847 847 846 845 844 844 844 843 842 840 838 835 834 833 832 829 826 823 820 819
814 827 825 831 830 824 823 824 832 834 837 846 836 837 826 831 835 837 840 844 845 845 844 844 844 844 842 842 843 843 842 841 839 837 835 834 833 831 828 825 822 819 817 815
821 839 829 833 835 836 829 828 832 833 830 833 830 833 826 829 835 838 839 842 843 842 842 842 841 841 842 842 843 842 840 839 837 835 834 833 831 828 825 821 817 815 813 811
828 843 850 850 852 843 850 829 824 819 817 820 836 824 828 832 833 837 840 840 841 841 841 841 841 841 841 842 841 840 838 836 834 833 832 831 829 826 822 818 814 812 810 809
835 854 873 869 867 866 818 812 811 814 814 818 821 823 823 827 831 835 837 838 839 839 839 839 839 839 840 839 839 837 835 833 831 831 830 829 826 822 819 815 812 810 808 808
826 853 872 875 868 839 811 811 815 815 817 817 820 824 826 832 834 835 833 833 835 836 837 837 837 838 838 838 836 834 832 831 830 829 828 825 822 819 816 813 811 808 807 806
837 846 857 878 874 864 816 806 804 807 829 812 816 823 828 834 846 834 829 831 832 833 834 835 836 837 837 835 834 833 832 830 828 827 824 822 819 816 813 810 808 807 805 804
854 870 867 903 883 843 813 804 804 826 822 808 811 816 825 828 825 822 825 829 830 832 834 834 835 835 834 833 832 830 829 827 825 824 822 819 816 813 810 807 805 804 804 804
841 849 862 868 879 837 802 806 814 803 799 801 807 809 813 815 820 822 823 825 828 831 833 833 833 832 832 831 829 827 826 824 823 821 819 816 813 810 808 805 804 804 804 804
829 820 830 829 820 799 798 791 791 792 795 800 802 805 809 814 818 820 824 825 828 830 831 831 831 831 830 828 827 825 824 822 820 818 816 814 811 808 807 805 804 803 803 803
811 809 822 814 794 796 795 791 790 791 793 795 797 803 808 813 816 819 825 826 828 829 830 830 830 829 828 826 824 823 821 818 815 813 813 811 808 806 805 803 803 803 802 801
808 807 803 812 798 793 790 788 787 789 791 793 796 799 803 807 815 818 822 825 827 828 829 829 828 827 825 823 822 820 817 815 813 811 809 808 806 804 803 802 802 802 800 799
800 795 809 797 786 785 784 781 784 788 789 791 794 801 805 808 815 817 821 823 825 826 826 825 824 823 821 820 818 816 813 812 810 808 805 803 803 802 801 801 800 800 798 796